RH
19 20 25 25 27 34 30 23 14 18 20 40 43 47 52 57 35 37 39 43 38 36 53 57 57 54 54 49 48 47 47 45 44 42 41 42 44 46 52 55 61 62 64 62 56 60 69 67 58
20 22 25 31 34 35 29 22 19 17 45 46 39 40 54 60 52 70 58 53 53 40 56 56 54 54 54 51 51 51 50 50 49 46 44 43 46 52 55 55 56 56 54 62 62 60 64 67 64
23 26 27 34 42 30 25 17 18 24 46 37 40 44 47 57 54 61 57 58 64 46 54 53 54 55 54 54 54 54 55 55 56 53 51 48 46 47 54 61 64 67 70 93 94 58 58 66 69
25 28 30 28 26 23 18 15 15 32 31 38 42 47 43 48 49 52 62 55 51 55 54 53 56 56 56 56 57 58 58 58 60 59 57 53 50 47 47 53 58 59 66 90 97 73 59 59 69
28 33 34 30 26 17 15 16 17 20 29 35 34 45 55 50 54 57 60 52 44 53 57 56 56 56 57 57 59 62 63 65 65 63 64 60 56 53 50 46 50 53 64 82 93 93 59 58 64
38 33 38 34 26 21 16 15 15 23 34 39 46 42 46 50 56 64 58 52 51 50 60 60 63 60 59 60 62 67 68 69 70 70 72 68 63 56 50 49 50 53 58 69 79 78 68 60 58
36 39 34 28 29 23 14 13 14 25 30 32 37 47 48 51 52 56 58 62 60 58 61 67 71 68 68 67 71 73 75 73 76 75 74 73 69 62 53 51 53 56 60 67 74 80 81 68 63
34 35 31 30 27 25 16 14 15 17 16 27 34 50 58 50 54 61 66 69 69 71 69 65 69 68 64 80 81 76 79 81 79 76 78 80 75 69 59 55 58 62 65 68 72 80 80 73 69
26 41 43 28 22 22 15 14 13 13 15 16 26 41 38 53 69 74 81 85 84 82 73 68 69 67 64 62 65 66 76 84 84 82 82 80 75 67 58 55 57 64 73 76 77 79 76 73 68
31 41 37 26 19 22 19 15 14 14 15 15 28 56 60 62 68 83 91 98 92 86 79 68 62 65 67 66 69 70 70 72 75 77 79 78 73 61 53 52 58 66 72 74 78 83 85 76 67
28 35 28 23 22 22 19 17 14 16 16 16 29 54 58 66 69 75 80 85 82 76 79 76 71 65 61 61 64 70 73 73 69 68 71 70 63 58 54 54 57 66 75 81 83 84 85 86 84
27 26 23 23 20 21 20 16 15 18 15 17 31 50 53 60 57 54 62 76 83 85 77 76 76 70 67 66 65 66 64 60 60 60 64 64 60 59 56 54 52 62 67 73 82 81 79 77 77
26 22 21 22 21 20 21 18 17 16 26 40 40 42 47 48 50 56 62 62 81 82 80 75 74 69 69 75 72 72 71 70 70 70 71 71 70 69 68 64 62 63 74 80 81 80 78 79 77
21 22 24 24 21 20 20 19 16 17 33 40 40 46 49 52 64 77 80 88 90 85 81 79 78 76 74 75 85 84 86 87 85 85 85 80 75 74 75 74 72 74 78 81 85 84 80 78 80
24 29 27 25 21 20 20 22 21 17 34 40 42 45 49 60 76 83 78 78 77 74 81 84 82 87 87 87 93 91 86 78 91 90 85 85 86 81 78 78 76 73 72 77 85 90 92 88 86
30 29 35 25 22 21 21 27 21 20 32 42 45 47 59 71 77 83 82 78 76 69 67 86 86 85 89 88 88 91 86 84 84 82 81 81 80 91 94 91 87 83 83 84 91 96 97 94 94
38 44 37 31 25 24 24 27 22 21 27 41 47 52 67 73 73 80 80 76 77 78 72 90 90 85 90 86 88 88 88 86 87 85 83 86 87 89 93 96 98 100 100 98 97 99 100 100 99
49 46 40 38 28 28 32 35 30 24 25 38 47 60 70 74 73 69 62 69 81 94 96 96 94 91 87 83 82 80 80 79 75 74 75 76 73 70 78 84 92 97 100 100 100 100 100 100 100
38 40 41 35 30 32 37 38 31 27 28 41 54 64 69 69 64 62 58 55 69 84 91 92 89 83 81 87 74 58 57 60 65 68 74 54 51 57 66 62 59 58 59 75 96 89 88 92 87
48 51 49 38 34 36 38 39 35 28 32 41 52 60 64 65 58 59 56 50 47 57 61 58 57 59 61 56 43 43 43 35 37 35 35 37 39 46 55 53 49 46 65 75 70 81 88 83 83
50 53 49 49 40 36 39 42 37 29 28 42 46 50 58 59 58 55 55 52 47 44 41 37 36 35 34 33 32 33 35 34 34 35 39 45 48 50 49 49 49 57 67 66 78 92 84 88 87
57 42 44 47 49 61 38 56 40 34 32 42 48 56 62 57 53 50 54 52 43 42 41 42 38 32 30 28 26 28 33 36 38 36 34 35 37 47 56 56 55 61 72 81 82 76 77 82 97
53 41 46 47 51 50 48 55 40 34 37 46 50 55 58 56 53 54 54 49 43 41 38 32 30 29 27 25 24 24 28 34 37 38 38 42 48 49 51 53 53 57 66 65 66 66 72 80 93
39 44 46 46 55 67 49 53 55 44 36 43 49 53 56 56 56 54 52 47 44 38 33 30 26 25 24 23 26 27 29 36 40 41 44 46 48 48 45 42 42 47 50 39 30 35 60 75 80
44 51 76 77 72 69 44 57 44 40 36 39 49 54 54 51 53 61 57 54 42 37 30 26 24 28 26 25 25 24 25 28 37 50 41 40 36 38 38 38 38 33 29 25 24 26 37 43 54
47 48 80 83 81 64 50 64 51 38 35 39 43 50 50 51 57 55 56 50 40 31 27 24 27 24 22 22 23 23 27 32 36 34 33 36 44 42 38 36 31 28 26 26 26 26 29 41 44
52 56 42 66 63 82 65 50 40 46 43 50 50 50 51 54 57 54 51 43 34 29 26 26 22 23 22 22 22 24 23 22 23 25 28 27 26 27 31 32 32 31 30 28 27 26 28 37 47
41 42 58 76 95 93 74 63 53 57 59 52 49 51 51 53 50 44 40 36 30 27 26 23 21 19 18 17 18 18 18 20 22 22 21 22 23 25 30 34 35 36 36 34 33 32 31 42 49
54 52 47 56 90 86 80 68 49 50 55 53 50 47 47 47 41 38 38 31 29 27 24 21 17 16 17 19 21 22 22 24 25 27 28 30 31 31 33 34 35 38 40 41 46 43 41 46 50
39 46 48 70 82 86 85 57 46 50 51 48 50 42 40 38 37 38 36 34 30 26 22 19 18 21 24 27 29 31 32 34 34 36 40 43 46 48 50 51 54 56 55 51 50 51 52 56 63
Wind_Speed
7 8 4 3 4 5 3 5 2 2 2 3 1 2 5 4 2 3 5 19 12 30 31 27 25 24 24 23 21 19 18 17 16 16 16 16 16 16 15 15 13 12 11 11 11 11 13 13 13
6 4 3 2 4 3 4 4 2 2 5 7 4 2 6 3 2 5 8 16 16 32 30 28 25 24 24 23 21 18 17 16 16 15 14 13 12 13 13 12 12 11 10 9 9 10 11 11 10
5 2 3 4 3 2 3 4 6 2 6 1 4 4 2 2 3 8 1 14 23 32 30 27 25 24 23 22 20 18 16 15 14 13 12 11 11 10 9 9 9 9 9 9 8 9 9 10 9
4 6 4 4 2 5 4 4 4 3 1 4 4 6 2 3 3 6 16 18 27 28 27 25 24 23 22 22 20 18 16 15 14 12 11 10 9 9 9 8 8 8 8 9 8 6 7 9 9
5 3 4 2 4 5 6 5 5 4 3 2 3 3 2 4 12 16 17 21 27 25 24 23 23 22 21 21 20 17 15 13 13 12 10 8 7 6 7 7 7 6 6 7 8 7 6 8 8
4 3 4 1 4 6 5 5 1 3 1 4 5 3 1 5 13 17 17 21 21 22 22 22 21 20 19 19 18 16 15 13 12 11 9 7 6 5 5 6 6 6 5 5 5 6 6 7 8
5 4 2 2 4 5 3 1 1 5 6 4 7 5 1 2 11 17 17 17 17 19 22 22 21 19 19 18 17 16 14 13 11 10 9 8 7 6 6 6 6 6 6 6 6 6 7 6 7
5 4 1 4 2 5 4 1 4 4 2 3 5 5 5 6 17 21 20 18 17 17 20 22 20 17 15 16 15 15 14 12 11 11 9 7 7 7 7 8 8 8 8 8 7 8 8 8 9
3 4 1 4 2 6 6 1 2 2 5 3 4 7 2 20 21 22 20 17 16 15 17 20 20 18 16 15 15 14 13 12 11 11 10 10 10 9 9 9 10 10 10 9 9 10 11 11 12
4 4 9 5 2 6 8 4 3 1 2 1 5 7 22 23 23 20 16 16 16 16 16 18 20 19 18 16 16 16 15 15 13 13 12 12 11 11 11 11 12 12 13 12 11 11 12 13 14
3 5 5 6 6 5 6 6 4 1 3 4 7 7 6 15 13 13 14 20 25 21 19 20 20 20 20 19 17 16 15 14 13 13 13 13 12 13 13 13 14 14 15 15 15 15 15 15 16
2 6 5 5 3 3 5 4 3 6 5 3 8 13 7 9 7 11 17 20 21 22 20 18 18 20 20 19 17 15 14 14 14 14 14 14 15 15 16 16 16 16 17 18 18 18 18 18 19
5 4 6 5 7 6 6 8 7 4 5 9 11 9 12 9 8 6 7 15 24 24 21 18 17 19 18 18 16 15 14 14 13 13 13 14 17 18 17 19 18 19 19 20 21 22 21 22 23
4 7 7 6 6 4 4 5 2 2 7 10 15 11 9 11 11 11 14 16 22 23 23 20 17 16 16 16 12 11 10 13 13 11 12 15 17 18 18 19 20 22 23 24 25 26 25 26 26
2 7 7 5 4 6 6 5 5 5 6 13 9 11 7 7 14 15 20 19 17 17 22 22 19 16 14 15 13 8 5 3 8 9 9 12 16 21 22 21 21 22 23 25 28 29 29 29 28
2 2 4 1 3 4 7 9 8 7 11 9 10 10 11 5 8 17 19 19 14 13 16 23 23 17 13 9 10 12 7 7 5 5 6 8 11 17 21 23 25 25 25 26 28 31 33 32 31
1 6 6 9 6 3 6 6 7 4 13 12 10 10 10 10 6 15 19 18 16 12 17 23 24 19 15 10 10 9 6 3 2 3 4 5 6 7 10 15 20 20 21 24 27 27 28 28 31
6 5 5 9 4 5 4 9 10 8 11 18 16 9 9 11 9 18 24 21 20 19 20 22 24 20 17 14 13 11 10 9 8 9 11 12 12 12 11 12 13 15 15 17 17 19 21 24 25
2 5 7 9 2 1 8 8 16 8 5 11 11 11 10 9 7 19 25 25 25 24 26 26 26 22 21 17 14 9 9 9 10 11 11 14 16 15 16 16 17 17 18 16 16 19 23 23 24
6 5 18 15 10 4 11 11 9 4 5 14 19 14 13 10 10 11 23 26 27 27 26 26 24 21 19 16 13 11 9 11 12 12 12 15 16 15 14 16 18 18 17 16 17 16 15 17 18
10 12 16 12 6 4 7 9 6 3 3 8 14 15 13 17 16 11 15 26 28 26 25 25 23 21 20 17 14 11 8 10 12 15 15 16 15 15 16 17 18 17 16 16 16 15 17 17 20
8 12 12 9 2 4 5 6 9 6 4 13 14 12 15 15 13 12 14 20 27 24 23 22 20 20 18 15 15 15 13 10 11 13 16 17 15 14 14 16 16 15 14 14 15 17 18 17 17
9 5 11 13 10 3 6 5 10 4 9 7 13 14 15 15 15 14 14 25 25 23 23 23 20 18 16 14 12 10 9 9 9 9 12 14 15 14 14 16 18 18 15 17 18 19 17 16 16
2 3 5 3 4 12 14 9 5 8 9 4 10 14 17 15 11 10 18 25 24 22 23 22 19 16 12 11 11 11 9 8 9 10 10 10 9 10 13 15 16 16 17 18 20 22 20 17 16
7 5 3 3 5 10 9 8 17 6 8 10 18 17 17 16 14 12 12 17 23 23 22 19 16 14 12 10 9 9 9 10 9 6 7 9 11 10 11 12 11 14 16 16 17 20 21 21 20
17 17 6 8 7 9 8 8 6 8 7 8 15 20 18 16 12 14 13 19 25 24 20 17 15 13 9 9 9 9 7 7 6 8 10 10 9 8 10 8 13 15 14 16 17 19 20 19 20
7 13 17 6 3 1 5 5 5 5 3 8 15 19 20 17 15 15 14 20 25 23 19 17 15 13 10 9 7 7 6 8 10 11 11 12 16 19 18 18 20 19 17 19 20 22 23 22 21
12 8 4 1 9 13 5 6 6 3 6 10 16 18 17 16 15 12 13 21 25 21 19 17 14 12 9 6 5 6 8 10 11 14 17 18 20 21 22 24 26 26 26 25 24 25 27 25 22
7 11 7 10 6 7 1 6 6 15 16 19 17 17 18 18 16 14 12 22 23 21 19 16 12 9 7 7 9 11 11 13 15 16 17 19 20 21 23 24 25 27 29 30 31 32 33 29 25
23 23 24 12 8 5 3 14 2 8 12 14 15 15 15 15 13 10 13 21 23 20 16 13 10 12 11 10 9 10 11 11 12 13 14 15 16 17 19 20 19 21 24 25 27 30 30 33 24
Wind_Direction
302 324 308 30 55 65 282 274 244 250 246 226 10 180 149 28 88 183 153 170 172 177 174 170 171 168 167 162 157 152 146 143 140 135 130 130 133 136 139 139 136 134 131 127 124 127 125 118 118
336 341 40 78 85 60 274 270 256 210 174 146 90 9 40 59 77 119 133 187 195 173 171 172 172 171 169 167 162 157 152 151 149 145 140 136 137 139 143 144 144 145 141 135 133 135 134 130 126
2 4 77 87 101 169 239 212 261 318 170 101 117 58 52 352 37 143 201 169 174 174 174 173 173 175 172 169 167 164 161 158 158 153 149 145 145 145 151 152 151 151 148 144 146 146 147 144 138
357 16 32 77 252 259 233 235 227 144 245 39 120 76 41 348 147 162 151 159 168 172 175 173 175 176 174 173 171 171 170 169 166 163 163 159 159 161 161 166 169 167 166 158 163 165 164 160 159
43 56 52 40 271 266 264 273 188 146 146 59 16 111 49 45 116 133 143 160 169 174 176 176 178 178 177 175 176 176 174 176 175 176 177 175 173 174 178 180 181 182 182 176 181 195 183 181 178
40 92 53 306 274 274 266 256 299 97 132 141 91 82 319 134 121 138 146 161 173 175 178 178 179 180 180 178 177 177 180 183 185 185 182 189 193 201 209 202 197 196 202 206 214 230 228 210 198
112 84 218 245 264 297 285 251 148 160 163 203 155 109 271 153 149 155 156 161 166 177 181 180 178 179 182 180 180 182 186 188 189 192 195 204 214 220 226 226 222 221 219 224 233 246 252 249 237
111 93 64 252 267 280 288 135 138 141 226 107 165 164 190 207 161 156 157 159 163 170 183 183 182 183 179 181 184 189 189 194 195 201 206 216 230 237 239 235 234 233 237 242 249 254 258 260 260
110 73 183 257 231 286 314 303 200 137 122 230 163 153 210 148 147 145 147 153 163 168 177 184 185 187 188 186 188 192 190 197 202 207 214 220 230 240 245 244 243 241 245 254 264 265 267 267 260
116 131 206 231 294 328 308 303 309 118 69 137 59 47 117 142 151 145 153 154 171 174 178 187 196 195 194 195 194 193 194 200 207 215 224 229 235 243 249 250 246 246 248 254 255 262 271 272 269
187 178 226 271 258 238 268 282 191 174 271 188 186 151 123 133 143 148 176 181 182 181 181 189 196 200 205 206 205 202 204 210 216 224 232 238 241 244 247 249 248 248 254 261 262 266 270 278 282
241 211 217 269 275 299 258 262 227 172 234 200 154 144 122 138 155 179 200 197 188 184 186 190 195 198 204 209 210 210 213 220 228 236 242 245 249 250 250 249 247 247 251 257 259 264 271 281 286
205 250 238 217 286 260 295 254 229 222 140 122 117 116 135 131 131 151 196 205 191 187 191 192 192 195 200 207 213 221 227 232 238 245 254 256 255 258 261 259 254 250 252 254 257 260 265 269 280
279 283 278 273 235 246 245 259 149 179 149 133 134 135 143 141 147 130 138 151 175 188 192 192 191 189 188 194 194 208 229 247 252 261 268 264 260 259 259 262 262 263 262 262 261 261 265 271 277
254 309 315 236 226 218 167 285 223 186 174 149 146 144 138 143 155 144 138 136 155 189 198 195 187 190 190 194 194 199 193 256 239 259 277 277 267 264 265 265 267 268 269 272 267 266 264 268 271
22 272 294 268 147 257 157 256 235 182 162 172 157 153 145 152 155 143 141 133 143 163 180 192 187 182 180 175 201 208 173 166 179 235 278 305 303 277 275 279 281 283 282 276 271 270 269 267 270
338 250 249 290 215 203 180 271 266 229 186 169 179 161 154 143 141 142 141 138 136 150 166 173 177 176 168 157 139 155 157 164 127 48 27 10 340 330 303 289 290 288 290 285 285 284 279 273 276
202 226 251 248 205 160 222 260 273 251 174 177 178 162 162 151 155 143 130 127 125 130 144 148 157 156 152 152 142 126 108 85 62 46 31 23 19 10 2 353 345 340 336 327 309 298 296 287 290
227 232 259 257 174 337 264 269 282 270 159 163 169 165 166 154 158 143 131 124 121 126 130 136 140 140 147 137 127 110 92 74 57 46 32 17 8 359 359 358 356 352 346 338 337 332 332 329 326
231 245 259 288 263 181 277 276 275 228 181 172 171 170 167 150 154 142 135 129 120 121 122 121 120 124 123 124 107 94 89 60 44 24 18 9 7 3 357 348 341 337 332 335 336 338 330 328 328
228 228 255 245 318 275 284 285 271 242 138 164 186 172 160 159 152 150 137 131 130 125 121 117 114 111 107 103 101 88 74 40 15 8 3 3 358 356 355 348 344 341 334 327 325 329 333 321 320
221 223 241 248 286 248 167 269 270 253 185 180 175 165 161 163 156 152 143 135 131 128 127 123 114 108 101 90 75 58 49 33 12 2 356 355 357 359 353 354 353 347 338 343 348 343 339 329 320
223 175 223 234 242 220 261 254 246 218 230 184 186 173 170 170 164 158 151 143 137 134 129 123 116 105 94 81 70 63 46 21 2 357 351 353 358 353 353 350 352 351 346 336 331 329 325 321 315
124 255 256 246 221 253 240 217 207 214 221 174 187 178 167 165 160 154 151 144 140 142 136 129 123 110 100 85 77 61 43 19 360 351 345 347 345 345 343 346 346 344 347 352 348 341 330 316 299
171 143 278 269 222 249 208 230 241 232 219 191 183 172 169 165 160 153 147 144 143 142 140 136 130 115 103 89 73 48 27 12 350 357 349 339 340 342 347 345 348 349 344 342 341 339 333 329 322
198 197 185 223 232 257 186 232 233 234 217 200 182 169 158 159 161 161 157 152 152 149 146 139 126 117 107 91 66 41 30 21 1 343 336 332 328 325 330 320 321 324 325 324 325 329 326 320 318
190 205 218 245 178 13 232 290 308 327 202 147 150 160 163 160 163 163 155 154 153 151 147 141 134 120 107 86 67 61 43 15 358 345 333 331 330 325 320 312 308 307 304 311 313 313 310 306 309
216 151 188 216 234 242 226 246 234 251 177 159 157 166 163 158 155 149 152 156 157 153 148 144 136 121 99 89 68 36 13 355 348 346 342 331 327 323 315 311 309 306 301 298 301 300 300 289 293
186 211 211 202 171 225 273 253 212 193 182 176 170 167 159 157 153 155 157 160 158 153 151 142 125 111 89 62 45 34 14 357 344 339 334 332 327 325 322 320 317 314 310 305 299 297 291 282 279
212 213 209 211 207 230 195 248 290 209 185 166 159 156 149 146 145 146 147 153 155 152 143 133 120 97 76 55 37 25 14 4 356 350 350 350 350 349 348 343 337 336 330 319 309 305 304 285 276